This demonstration page uses our WeatherBlox Daily Observations layout. Learn more.

Left ArrowRight Arrow

Hourly Observations for August 5, 2018

Temp ( °F °C ) Dew Point ( °F °C ) Humidity (%) Winds ( mph kmh ) Pressure ( in mb ) Visibility ( mi km ) Precip ( " mm )
12:59 am 00:59 Mostly Clear 78 25.6 74 23.3 87 87 SW 8 13 30.17 1022 10 16 0.00 0.00
1:59 am 01:59 Mostly Clear 77 25 74 23.3 90 90 SW 5 7 30.17 1022 10 16 0.00 0.00
2:59 am 02:59 Mostly Clear 77 25 74 23.3 90 90 Calm 30.17 1022 10 16 0.00 0.00
3:59 am 03:59 Mostly Clear 75 23.9 73 22.8 94 94 SW 3 6 30.18 1022 9 14 0.00 0.00
4:59 am 04:59 Mostly Cloudy 75 23.9 73 22.8 94 94 Calm 30.18 1022 8 13 0.00 0.00
5:59 am 05:59 Mostly Cloudy 77 25 74 23.3 90 90 W 3 6 30.18 1022 9 14 0.00 0.00
6:59 am 06:59 Mostly Cloudy 76 24.4 74 23.3 94 94 Calm 30.19 1022 7 11 0.00 0.00
7:59 am 07:59 Mostly Cloudy 81 27.2 75 23.9 82 82 Calm 30.20 1023 8 13 0.00 0.00
8:59 am 08:59 Sunny 84 28.9 74 23.3 72 72 N 5 7 30.21 1023 10 16 0.00 0.00
9:59 am 09:59 Partly Cloudy 86 30 74 23.3 67 67 N 5 7 30.22 1023 10 16 0.00 0.00
10:59 am 10:59 Partly Cloudy 85 29.4 72 22.2 65 65 N 5 7 30.22 1023 10 16 0.00 0.00
11:59 am 11:59 Partly Cloudy 87 30.6 71 21.7 59 59 NNE 6 9 30.21 1023 10 16 0.00 0.00
12:59 pm 12:59 Partly Cloudy 88 31.1 71 21.7 57 57 ENE 5 7 30.20 1023 10 16 0.00 0.00
1:59 pm 13:59 Partly Cloudy 88 31.1 68 20 52 52 ENE 6 9 30.19 1022 10 16 0.00 0.00
2:59 pm 14:59 Partly Cloudy 89 31.7 68 20 50 50 NE 7 11 30.16 1022 10 16 0.00 0.00
3:59 pm 15:59 Partly Cloudy 89 31.7 68 20 50 50 E 8 13 30.15 1021 10 16 0.00 0.00
4:59 pm 16:59 Mostly Cloudy 88 31.1 67 19.4 50 50 E 6 9 30.14 1021 10 16 0.00 0.00
5:59 pm 17:59 Mostly Cloudy 87 30.6 72 22.2 61 61 E 8 13 30.14 1021 10 16 0.00 0.00
6:59 pm 18:59 Mostly Cloudy 85 29.4 72 22.2 65 65 SE 5 7 30.16 1021 10 16 0.00 0.00
7:59 pm 19:59 Mostly Cloudy 83 28.3 72 22.2 70 70 SSE 6 9 30.14 1021 10 16 0.00 0.00
8:59 pm 20:59 Partly Cloudy 80 26.7 71 21.7 74 74 S 3 6 30.16 1021 10 16 0.00 0.00
9:59 pm 21:59 Clear 80 26.7 73 22.8 79 79 Calm 30.17 1022 10 16 0.00 0.00
10:59 pm 22:59 Clear 79 26.1 73 22.8 82 82 S 5 7 30.17 1022 10 16 0.00 0.00
11:59 pm 23:59 Clear 78 25.6 72 22.2 82 82 SSE 3 6 30.16 1021 10 16 0.00 0.00

Powered by AerisWeather